KZ-1A R/B (43637 NORAD) Tracking and Keplerian Element Data

This shows tracking and keplerian element data for the satellite.

Feedback or suggestion? Click here.




ElementValue
Catalog43637
NameKZ-1A R/B
Epoch Orbit452
Epoch Day302.19802853
Epoch Year2018
RAAN17.476
Inclination98.2236
Eccentricity0.0394544
Argument of Perigee300.0557
Mean Anonmoly56.2083
Mean Motion15.09164613
Decay Rate0.00014024
L11 43637U 18075B 18302.19802853 .00014024 25003-5 12810-3 0 9995
L22 43637 98.2236 17.4760 0394544 300.0557 56.2083 15.09164613 4520

Live tracking and technical data element details for KZ-1A R/B (NORAD 43637). KZ-1A R/B can be tracked NOW for your location showing map with azimuth and elevation plus other details from your city location.

Track the satellite on the map from your city or location and see movement details for azimuth, elevation, latitude, longitude, range, height, and movement on the map or in text.







IsCatalogInMostPopularTable: catalog: 43637, numindb: 33
Update: records affected: 1



GetName: 43637 KZ-1A R/B

Hit Count: updated at: Sat, 17 Nov 2018 02:05:05 GMT